STARLINK-36888, 68004

Orbit data source: Space-Track

STARLINK-36888, 68004 is a payload satellite owned by SpaceX/Seattle (US) in LEO that was launched on Fri, 27 Feb 2026 UTC via an FALCON 9 launch vehicle from the Air Force Eastern Test Range (AFETR). Payload-class satellites include a variety of spacecraft equipped with specific instruments for various scientific and technological missions. These include communications satellites like Starlink; space stations such as the ISS; scientific satellites like the Hubble; Earth observation satellites from companies like Planet Labs, Umbra, and HawkEye 360; GPS; miniature CubeSats for education and research; and military/defense satellites.

Loading next visibility...
Identifier
68004, 2026-039U
Orbit
LEO
Country
Flag of USUS
Related business
Manufacturer
SpaceX/Seattle
Mission
Operational Commercial Communications
Bus & Motor
STARLINK V2MO, Unknown motor
Mass
575 kg wet, ~530 kg dry
Launch date (UTC)
2026-02-27 (2 months ago)
Launch vehicle
FALCON 9
Launch site
Air Force Eastern Test Range (AFETR)
Object type
Payload
Rocket body
Debris
Shape & HBR
Box + 2 Pan, 17.7 m
Radar Cross Section
36.964 m²

Expand to show TLE details & history
Last TLE update: 2 days ago

TLE from 2 days ago
0 STARLINK-36888
1 68004U 26039U   26110.56497585 -.00115636  00000-0 -42479-2 0  9999
2 68004  43.0011 172.7929 0002143 281.9067  78.1545 15.27659534  8105
Epoch: 2026-04-20T13:33Z
TLE epoch observation values (Epoch: 2026-04-20T13:33:33.913Z)
Latitude
0.00003°
Longitude
120.74834°
Altitude
482.285 km
Speed
7.626 km/s
True Right ascension
11h 31m 10s
True Declination
0° 00' 00"
Sunlit
Object was in full shadow at epoch
Visualization orbit readout
Latitude
Unknown
Longitude
Unknown
Altitude
Unknown
Speed
Unknown
Apparent Right ascension
Unknown
Apparent Declination
Unknown
Sunlit
N/A
Visualization observer readout
Local Sidereal Time
18:07:52
Azimuth
Unknown
Elevation
Unknown
Doppler factor
Unknown
Orbital elements
Apogee altitude
486.227 km
Perigee altitude
483.285 km
Semi-major axis
6,862.893 km
Eccentricity
0.00021
Inclination
43.0011°
RAAN
172.7929°
Arg. of periapsis
281.9067°
True anomaly
78.17854°
Mean anomaly
78.1545°
Eccentric anomaly
78.16652°
Mean motion
3.81753 °/min
Orbital period
94.3 mins
BSTAR
-0.0042479
Loading maneuver chart data...
Computing Atmospheric mass density...
Loading historical data...
Loading historical data...
Loading historical data...
Loading historical data...
Loading historical data...
Loading historical data...
Loading historical data...

Documentation

Showing up to 5 results
|